Flag for Tunisia Weather past 2 weeks in Kairouan, Tunisia

Now
90 °F

Sunny.


Feels Like: 95 °F
Forecast: 78 / 99 °F
Wind: 2 mph from Northeast

Location: Kairouan Airport

Current Time: Sep 15, 2014 at 11:33:38 AM

Latest Report: Sep 15, 2014 at 11:00 AM


Visibility: 10 mi

Pressure: 29.98 "Hg

Humidity: 52%

Dew point: 70 °F

Location of KairouanLocation

Historic Weather in Kairouan — Graph

°F

Kairouan temperature yesterday

Maximum temperature yesterday: 99 °F (at 5:00 PM)
Minimum temperature yesterday: 73 °F (at 5:00 AM)
Average temperature yesterday: 85 °F

Past Weeks' High & Low Weather Summary

 TemperatureHumidityPressure
High100 °F (Aug 31, 2:00 PM)94% (Sep 9, 5:00 AM)30.07 "Hg (Sep 9, 5:00 AM)
Low66 °F (Sep 3, 5:00 AM)22% (Sep 12, 5:00 PM)29.80 "Hg (Sep 1, 4:00 PM)
Average83 °F58%29.93 "Hg
* Reported Aug 31 10:00 AM — Sep 15 10:00 AM, Kairouan, Weather by CustomWeather, © 2014

Note: Actual official high and low records may vary slightly from our data, if they occured in-between our weather recording intervals... More about our weather records

Advertising

Kairouan weather history for previous 24 hours

 ConditionsComfort  
Time TempWeatherWind HumidityBarometerVisibility
10:00 AM
Sep 15
86 °FSunny.2 mph62%29.98 "Hg10 mi
9:00 AM81 °FClear.5 mph74%29.98 "Hg5 mi
8:00 AM77 °FClear.2 mph83%29.98 "Hg5 mi
7:00 AM75 °FClear.3 mph89%29.95 "Hg4 mi
6:00 AM75 °FClear.1 mph89%29.95 "Hg4 mi
5:00 AM75 °FClear.2 mph89%29.95 "Hg5 mi
4:00 AM77 °FClear.2 mph83%29.95 "Hg5 mi
3:00 AM77 °FWarm.3 mph83%29.95 "HgN/A
2:00 AM79 °FClear.2 mph79%29.95 "Hg5 mi
1:00 AM79 °FClear.1 mph84%29.95 "Hg5 mi
12:00 AM81 °FClear.3 mph79%29.95 "Hg10 mi
11:00 PM
Sep 14
81 °FPassing clouds.3 mph79%29.98 "HgN/A
10:00 PM82 °FClear.3 mph70%29.95 "Hg10 mi
9:00 PM86 °FPassing clouds.3 mph62%29.95 "HgN/A
8:00 PM88 °FPassing clouds.2 mph55%29.92 "HgN/A
7:00 PM93 °FPassing clouds.No wind34%29.89 "HgN/A
6:00 PM97 °FPassing clouds.2 mph28%29.89 "HgN/A
5:00 PM99 °FPassing clouds.2 mph29%29.89 "HgN/A
4:00 PM97 °FPassing clouds.5 mph30%29.89 "HgN/A
2:00 PM97 °FSunny.5 mph30%29.92 "Hg10 mi
1:00 PM95 °FSunny.6 mph32%29.95 "Hg10 mi
12:00 PM91 °FSunny.6 mph36%29.98 "Hg10 mi
11:00 AM90 °FSunny.5 mph43%29.98 "Hg10 mi
Weather by CustomWeather, © 2014

See weather overviewHow to use our weather pages